Time,TemperatureF,DewpointF,PressureIn,WindDirection,WindDirectionDegrees,WindSpeedMPH,WindSpeedGustMPH,Humidity,HourlyPrecipIn,Conditions,Clouds,dailyrainin,SolarRadiationWatts/m^2,SoftwareType,DateUTC
2013-04-30 00:10:00,63.0,53.0,29.73,NW,315,4.0,9.0,69,0.00,,,0.00,0,weatherlink.com 1.10,2013-04-30 07:10:00,
2013-04-30 00:25:00,62.9,53.0,29.73,NW,314,3.0,8.0,69,0.00,,,0.00,0,weatherlink.com 1.10,2013-04-30 07:25:00,
2013-04-30 00:40:00,62.7,52.0,29.73,NNW,335,4.0,7.0,69,0.00,,,0.00,0,weatherlink.com 1.10,2013-04-30 07:40:00,
2013-04-30 00:55:00,62.5,53.0,29.73,NW,319,3.0,6.0,70,0.00,,,0.00,0,weatherlink.com 1.10,2013-04-30 07:55:00,
2013-04-30 01:11:00,62.6,52.0,29.73,NNW,327,3.0,8.0,68,0.00,,,0.00,0,weatherlink.com 1.10,2013-04-30 08:11:00,
2013-04-30 01:26:00,63.0,52.0,29.73,NW,306,4.0,6.0,67,0.00,,,0.00,0,weatherlink.com 1.10,2013-04-30 08:26:00,
2013-04-30 01:41:00,63.2,51.0,29.73,NNW,327,2.0,6.0,65,0.00,,,0.00,0,weatherlink.com 1.10,2013-04-30 08:41:00,
2013-04-30 01:56:00,63.1,51.0,29.73,NW,315,2.0,6.0,66,0.00,,,0.00,0,weatherlink.com 1.10,2013-04-30 08:56:00,
2013-04-30 02:11:00,62.5,51.0,29.73,NNW,329,3.0,5.0,66,0.00,,,0.00,0,weatherlink.com 1.10,2013-04-30 09:11:00,
2013-04-30 02:26:00,62.0,50.0,29.73,NNW,327,4.0,5.0,66,0.00,,,0.00,0,weatherlink.com 1.10,2013-04-30 09:26:00,
2013-04-30 02:41:00,61.5,50.0,29.73,NW,320,3.0,4.0,67,0.00,,,0.00,0,weatherlink.com 1.10,2013-04-30 09:41:00,
2013-04-30 02:56:00,61.1,50.0,29.73,NNW,333,1.0,5.0,67,0.00,,,0.00,0,weatherlink.com 1.10,2013-04-30 09:56:00,
2013-04-30 03:11:00,61.1,49.0,29.74,NNW,329,2.0,6.0,65,0.00,,,0.00,0,weatherlink.com 1.10,2013-04-30 10:11:00,
2013-04-30 03:26:00,60.6,50.0,29.74,NNW,333,4.0,5.0,67,0.00,,,0.00,0,weatherlink.com 1.10,2013-04-30 10:26:00,
2013-04-30 03:41:00,60.4,49.0,29.74,NNW,333,2.0,5.0,67,0.00,,,0.00,0,weatherlink.com 1.10,2013-04-30 10:41:00,
2013-04-30 03:56:00,60.0,49.0,29.74,NW,313,2.0,5.0,67,0.00,,,0.00,0,weatherlink.com 1.10,2013-04-30 10:56:00,
2013-04-30 04:11:00,59.2,49.0,29.74,NNW,333,4.0,5.0,69,0.00,,,0.00,0,weatherlink.com 1.10,2013-04-30 11:11:00,
2013-04-30 04:26:00,59.0,48.0,29.74,NW,317,4.0,7.0,67,0.00,,,0.00,0,weatherlink.com 1.10,2013-04-30 11:26:00,
2013-04-30 04:41:00,59.1,47.0,29.75,NW,308,6.0,6.0,64,0.00,,,0.00,0,weatherlink.com 1.10,2013-04-30 11:41:00,
2013-04-30 04:56:00,60.0,45.0,29.75,NNW,328,3.0,6.0,59,0.00,,,0.00,0,weatherlink.com 1.10,2013-04-30 11:56:00,
2013-04-30 05:11:00,59.5,46.0,29.75,NW,319,3.0,5.0,61,0.00,,,0.00,0,weatherlink.com 1.10,2013-04-30 12:11:00,
2013-04-30 05:26:00,58.8,46.0,29.75,NNW,328,4.0,6.0,62,0.00,,,0.00,0,weatherlink.com 1.10,2013-04-30 12:26:00,
2013-04-30 05:41:00,58.8,46.0,29.76,NW,318,3.0,4.0,62,0.00,,,0.00,0,weatherlink.com 1.10,2013-04-30 12:41:00,
2013-04-30 05:56:00,57.8,46.0,29.76,NW,322,2.0,4.0,64,0.00,,,0.00,0,weatherlink.com 1.10,2013-04-30 12:56:00,
2013-04-30 06:11:00,57.3,45.0,29.76,NNW,338,1.0,4.0,63,0.00,,,0.00,0,weatherlink.com 1.10,2013-04-30 13:11:00,
2013-04-30 06:26:00,57.9,43.0,29.76,NNW,337,3.0,7.0,59,0.00,,,0.00,11,weatherlink.com 1.10,2013-04-30 13:26:00,
2013-04-30 06:41:00,59.6,43.0,29.77,NNW,342,2.0,8.0,55,0.00,,,0.00,25,weatherlink.com 1.10,2013-04-30 13:41:00,
2013-04-30 06:56:00,60.9,42.0,29.77,NW,321,5.0,9.0,50,0.00,,,0.00,37,weatherlink.com 1.10,2013-04-30 13:56:00,
2013-04-30 07:11:00,62.0,41.0,29.78,NNW,346,3.0,9.0,46,0.00,,,0.00,46,weatherlink.com 1.10,2013-04-30 14:11:00,
2013-04-30 07:26:00,63.4,41.0,29.78,NNW,342,4.0,13.0,44,0.00,,,0.00,176,weatherlink.com 1.10,2013-04-30 14:26:00,
2013-04-30 07:41:00,64.6,41.0,29.79,NW,318,7.0,13.0,42,0.00,,,0.00,227,weatherlink.com 1.10,2013-04-30 14:41:00,
2013-04-30 07:56:00,65.3,39.0,29.79,North,350,4.0,13.0,38,0.00,,,0.00,262,weatherlink.com 1.10,2013-04-30 14:56:00,
2013-04-30 08:11:00,66.1,41.0,29.79,NNW,327,5.0,13.0,40,0.00,,,0.00,297,weatherlink.com 1.10,2013-04-30 15:11:00,
2013-04-30 08:27:00,67.3,39.0,29.79,NNE,26,3.0,14.0,35,0.00,,,0.00,371,weatherlink.com 1.10,2013-04-30 15:27:00,
2013-04-30 08:42:00,68.5,36.0,29.79,NNE,32,8.0,16.0,30,0.00,,,0.00,408,weatherlink.com 1.10,2013-04-30 15:42:00,
2013-04-30 08:57:00,69.2,38.0,29.80,North,11,6.0,15.0,32,0.00,,,0.00,411,weatherlink.com 1.10,2013-04-30 15:57:00,
2013-04-30 09:12:00,68.9,37.0,29.80,NNW,333,5.0,19.0,31,0.00,,,0.00,316,weatherlink.com 1.10,2013-04-30 16:12:00,
2013-04-30 09:27:00,69.7,36.0,29.80,North,355,11.0,19.0,29,0.00,,,0.00,513,weatherlink.com 1.10,2013-04-30 16:27:00,
2013-04-30 09:42:00,70.7,35.0,29.80,NNE,23,15.0,23.0,27,0.00,,,0.00,573,weatherlink.com 1.10,2013-04-30 16:42:00,
2013-04-30 09:57:00,72.3,35.0,29.80,NNW,339,11.0,17.0,26,0.00,,,0.00,585,weatherlink.com 1.10,2013-04-30 16:57:00,
2013-04-30 10:12:00,72.9,34.0,29.80,North,11,8.0,23.0,24,0.00,,,0.00,643,weatherlink.com 1.10,2013-04-30 17:12:00,
2013-04-30 10:27:00,73.6,32.0,29.81,North,5,16.0,22.0,22,0.00,,,0.00,645,weatherlink.com 1.10,2013-04-30 17:27:00,
2013-04-30 10:42:00,74.1,36.0,29.81,NNW,340,9.0,21.0,25,0.00,,,0.00,649,weatherlink.com 1.10,2013-04-30 17:42:00,
2013-04-30 10:57:00,74.7,36.0,29.82,NNW,343,7.0,23.0,24,0.00,,,0.00,724,weatherlink.com 1.10,2013-04-30 17:57:00,
2013-04-30 11:12:00,75.5,35.0,29.82,NNE,15,10.0,21.0,23,0.00,,,0.00,701,weatherlink.com 1.10,2013-04-30 18:12:00,
2013-04-30 11:27:00,75.9,37.0,29.81,NNE,14,12.0,22.0,24,0.00,,,0.00,779,weatherlink.com 1.10,2013-04-30 18:27:00,
2013-04-30 11:42:00,76.7,37.0,29.81,North,5,8.0,22.0,24,0.00,,,0.00,802,weatherlink.com 1.10,2013-04-30 18:42:00,
2013-04-30 11:57:00,77.4,34.0,29.81,NNE,30,9.0,23.0,21,0.00,,,0.00,828,weatherlink.com 1.10,2013-04-30 18:57:00,
2013-04-30 12:12:00,77.7,38.0,29.80,NNW,347,12.0,20.0,24,0.00,,,0.00,819,weatherlink.com 1.10,2013-04-30 19:12:00,
2013-04-30 12:27:00,78.5,39.0,29.80,NE,53,12.0,22.0,24,0.00,,,0.00,854,weatherlink.com 1.10,2013-04-30 19:27:00,
2013-04-30 12:42:00,79.1,36.0,29.80,North,350,10.0,20.0,21,0.00,,,0.00,856,weatherlink.com 1.10,2013-04-30 19:42:00,
2013-04-30 12:57:00,79.6,38.0,29.80,NNE,19,9.0,20.0,22,0.00,,,0.00,868,weatherlink.com 1.10,2013-04-30 19:57:00,
2013-04-30 13:13:00,80.2,38.0,29.79,NE,38,8.0,19.0,22,0.00,,,0.00,868,weatherlink.com 1.10,2013-04-30 20:13:00,
2013-04-30 13:28:00,80.6,38.0,29.79,NNW,348,7.0,21.0,22,0.00,,,0.00,863,weatherlink.com 1.10,2013-04-30 20:28:00,
2013-04-30 13:58:00,81.3,39.0,29.79,NNE,24,10.0,17.0,22,0.00,,,0.00,854,weatherlink.com 1.10,2013-04-30 20:58:00,
2013-04-30 14:13:00,81.6,38.0,29.79,NE,56,13.0,19.0,21,0.00,,,0.00,849,weatherlink.com 1.10,2013-04-30 21:13:00,
2013-04-30 14:28:00,81.9,38.0,29.79,NNW,345,4.0,20.0,21,0.00,,,0.00,828,weatherlink.com 1.10,2013-04-30 21:28:00,
2013-04-30 14:43:00,82.5,39.0,29.78,WNW,299,8.0,19.0,21,0.00,,,0.00,805,weatherlink.com 1.10,2013-04-30 21:43:00,
2013-04-30 14:58:00,82.6,36.0,29.78,North,351,11.0,20.0,19,0.00,,,0.00,777,weatherlink.com 1.10,2013-04-30 21:58:00,
2013-04-30 15:13:00,83.0,37.0,29.78,North,360,5.0,17.0,19,0.00,,,0.00,761,weatherlink.com 1.10,2013-04-30 22:13:00,
2013-04-30 15:28:00,83.3,38.0,29.77,North,11,10.0,23.0,20,0.00,,,0.00,744,weatherlink.com 1.10,2013-04-30 22:28:00,
2013-04-30 15:43:00,83.3,38.0,29.78,NNW,344,8.0,19.0,20,0.00,,,0.00,647,weatherlink.com 1.10,2013-04-30 22:43:00,
2013-04-30 15:58:00,82.1,33.0,29.78,NNW,338,9.0,20.0,17,0.00,,,0.00,406,weatherlink.com 1.10,2013-04-30 22:58:00,
2013-04-30 16:13:00,82.3,36.0,29.77,NNW,343,8.0,18.0,19,0.00,,,0.00,705,weatherlink.com 1.10,2013-04-30 23:13:00,
2013-04-30 16:28:00,81.2,35.0,29.77,NNE,13,7.0,19.0,19,0.00,,,0.00,272,weatherlink.com 1.10,2013-04-30 23:28:00,
2013-04-30 16:43:00,80.3,37.0,29.77,NNE,30,7.0,16.0,21,0.00,,,0.00,329,weatherlink.com 1.10,2013-04-30 23:43:00,
2013-04-30 16:58:00,79.2,35.0,29.77,NNE,32,5.0,15.0,20,0.00,,,0.00,381,weatherlink.com 1.10,2013-04-30 23:58:00,
2013-04-30 17:13:00,79.6,38.0,29.77,NNE,32,8.0,14.0,22,0.00,,,0.00,501,weatherlink.com 1.10,2013-05-01 00:13:00,
2013-04-30 17:28:00,81.0,32.0,29.77,NNE,24,7.0,19.0,17,0.00,,,0.00,418,weatherlink.com 1.10,2013-05-01 00:28:00,
2013-04-30 17:43:00,80.7,32.0,29.77,NE,44,20.0,20.0,17,0.00,,,0.00,278,weatherlink.com 1.10,2013-05-01 00:43:00,
2013-04-30 17:58:00,80.2,34.0,29.77,NNE,21,8.0,15.0,19,0.00,,,0.00,316,weatherlink.com 1.10,2013-05-01 00:58:00,
2013-04-30 18:13:00,79.9,33.0,29.77,NNW,347,10.0,16.0,18,0.00,,,0.00,283,weatherlink.com 1.10,2013-05-01 01:13:00,
2013-04-30 18:28:00,79.3,34.0,29.77,NW,320,7.0,16.0,19,0.00,,,0.00,239,weatherlink.com 1.10,2013-05-01 01:28:00,
2013-04-30 18:43:00,78.3,33.0,29.77,ENE,57,7.0,15.0,19,0.00,,,0.00,193,weatherlink.com 1.10,2013-05-01 01:43:00,
2013-04-30 18:58:00,77.0,32.0,29.77,ENE,67,11.0,16.0,19,0.00,,,0.00,98,weatherlink.com 1.10,2013-05-01 01:58:00,
2013-04-30 19:13:00,76.2,32.0,29.77,North,11,5.0,18.0,20,0.00,,,0.00,93,weatherlink.com 1.10,2013-05-01 02:13:00,
2013-04-30 19:28:00,75.1,31.0,29.78,NNW,346,7.0,15.0,20,0.00,,,0.00,46,weatherlink.com 1.10,2013-05-01 02:28:00,
2013-04-30 19:43:00,74.0,29.0,29.78,NNE,20,5.0,17.0,19,0.00,,,0.00,16,weatherlink.com 1.10,2013-05-01 02:43:00,
2013-04-30 19:58:00,73.2,28.0,29.78,North,5,12.0,16.0,19,0.00,,,0.00,5,weatherlink.com 1.10,2013-05-01 02:58:00,
2013-04-30 20:13:00,72.3,26.0,29.78,NNW,336,4.0,16.0,18,0.00,,,0.00,0,weatherlink.com 1.10,2013-05-01 03:13:00,
2013-04-30 20:28:00,71.8,26.0,29.79,NNW,328,3.0,12.0,18,0.00,,,0.00,0,weatherlink.com 1.10,2013-05-01 03:28:00,
2013-04-30 20:43:00,71.2,27.0,29.79,NNE,13,7.0,12.0,19,0.00,,,0.00,0,weatherlink.com 1.10,2013-05-01 03:43:00,
2013-04-30 20:58:00,71.3,26.0,29.78,North,360,4.0,17.0,18,0.00,,,0.00,0,weatherlink.com 1.10,2013-05-01 03:58:00,
2013-04-30 21:13:00,71.5,26.0,29.78,NNW,342,8.0,18.0,18,0.00,,,0.00,0,weatherlink.com 1.10,2013-05-01 04:13:00,
2013-04-30 21:28:00,71.5,26.0,29.79,North,11,7.0,17.0,18,0.00,,,0.00,0,weatherlink.com 1.10,2013-05-01 04:28:00,
2013-04-30 21:43:00,71.3,26.0,29.79,NW,321,11.0,17.0,18,0.00,,,0.00,0,weatherlink.com 1.10,2013-05-01 04:43:00,
2013-04-30 21:58:00,71.0,25.0,29.79,NW,325,10.0,18.0,18,0.00,,,0.00,0,weatherlink.com 1.10,2013-05-01 04:58:00,
2013-04-30 22:13:00,70.7,25.0,29.79,NW,323,8.0,20.0,18,0.00,,,0.00,0,weatherlink.com 1.10,2013-05-01 05:13:00,
2013-04-30 22:28:00,70.5,25.0,29.79,NNE,17,10.0,24.0,18,0.00,,,0.00,0,weatherlink.com 1.10,2013-05-01 05:28:00,
2013-04-30 22:43:00,70.0,26.0,29.79,North,360,8.0,20.0,19,0.00,,,0.00,0,weatherlink.com 1.10,2013-05-01 05:43:00,
2013-04-30 22:58:00,69.3,26.0,29.79,NNW,346,7.0,23.0,20,0.00,,,0.00,0,weatherlink.com 1.10,2013-05-01 05:58:00,
2013-04-30 23:13:00,68.8,26.0,29.80,North,355,13.0,20.0,20,0.00,,,0.00,0,weatherlink.com 1.10,2013-05-01 06:13:00,
2013-04-30 23:28:00,68.5,27.0,29.80,North,5,6.0,21.0,21,0.00,,,0.00,0,weatherlink.com 1.10,2013-05-01 06:28:00,
2013-04-30 23:43:00,68.1,27.0,29.80,North,351,11.0,21.0,21,0.00,,,0.00,0,weatherlink.com 1.10,2013-05-01 06:43:00,
2013-04-30 23:58:00,67.6,27.0,29.81,NE,38,10.0,23.0,22,0.00,,,0.00,0,weatherlink.com 1.10,2013-05-01 06:58:00,